,,PA_Meas_PMT16A,,PR_Meas_QMR101_102,,RH_Meas_QMH101,,SR_Meas_QMS101,,TA_Meas_QMH101,,GenWind,,GenWind,
time,status,PA,status,PR,status,RH,status,SR,status,TA,status,DirAvg,status,SpdAvg,
2014-10-17, 00:00:04,VALID,917.035,VALID,0,VALID,79.6037,VALID,0,VALID,21.8876,VALID,67,VALID,2.26641,
2014-10-17, 00:01:04,VALID,917.044,VALID,0,VALID,78.9786,VALID,0,VALID,21.9835,VALID,73,VALID,1.83594,
2014-10-17, 00:02:04,VALID,917.013,VALID,0,VALID,78.6813,VALID,0.107441,VALID,22.042,VALID,76,VALID,2.32461,
2014-10-17, 00:03:04,VALID,917,VALID,0,VALID,78.9862,VALID,0,VALID,22.0827,VALID,83,VALID,1.95234,
2014-10-17, 00:04:04,VALID,916.993,VALID,0,VALID,79.4665,VALID,0,VALID,22.0047,VALID,67,VALID,1.19336,
2014-10-17, 00:05:04,VALID,916.987,VALID,0,VALID,79.5808,VALID,0,VALID,21.964,VALID,109,VALID,1.32969,
2014-10-17, 00:06:04,VALID,916.953,VALID,0,VALID,79.2073,VALID,0,VALID,21.964,VALID,69,VALID,2.24375,
2014-10-17, 00:07:04,VALID,916.954,VALID,0,VALID,78.5288,VALID,0,VALID,21.9835,VALID,106,VALID,3.03906,
2014-10-17, 00:08:04,VALID,916.95,VALID,0,VALID,78.7194,VALID,0,VALID,22.0225,VALID,111,VALID,2.47656,
2014-10-17, 00:09:04,VALID,916.962,VALID,0,VALID,78.6813,VALID,0,VALID,22.0225,VALID,68,VALID,2.68438,
2014-10-17, 00:10:04,VALID,916.938,VALID,0,VALID,78.0104,VALID,0,VALID,22.081,VALID,63,VALID,3.06055,
2014-10-17, 00:11:04,VALID,916.974,VALID,0,VALID,78.0485,VALID,0,VALID,22.1396,VALID,76,VALID,2.21445,
2014-10-17, 00:12:04,VALID,916.999,VALID,0,VALID,78.3306,VALID,0.107441,VALID,22.1201,VALID,55,VALID,2.05586,
2014-10-17, 00:13:04,VALID,916.981,VALID,0,VALID,76.9508,VALID,0,VALID,22.1981,VALID,78,VALID,3.01484,
2014-10-17, 00:14:04,VALID,916.931,VALID,0,VALID,77.1566,VALID,0,VALID,22.2762,VALID,55,VALID,1.47812,
2014-10-17, 00:15:04,VALID,916.947,VALID,0,VALID,77.3014,VALID,0,VALID,22.2974,VALID,42,VALID,1.46602,
2014-10-17, 00:16:04,VALID,916.905,VALID,0,VALID,77.7588,VALID,0.107441,VALID,22.2583,VALID,73,VALID,1.25664,
2014-10-17, 00:17:04,VALID,916.894,VALID,0,VALID,76.5848,VALID,0,VALID,22.3152,VALID,77,VALID,1.61523,
2014-10-17, 00:18:04,VALID,916.889,VALID,0,VALID,76.4857,VALID,0,VALID,22.3737,VALID,54,VALID,0.589063,
2014-10-17, 00:19:04,VALID,916.881,VALID,0,VALID,76.5543,VALID,0,VALID,22.3933,VALID,49,VALID,2.95859,
2014-10-17, 00:20:04,VALID,916.872,VALID,0,VALID,76.7221,VALID,0,VALID,22.3347,VALID,64,VALID,2.11562,
2014-10-17, 00:21:04,VALID,916.839,VALID,0,VALID,76.4934,VALID,0,VALID,22.3364,VALID,98,VALID,1.35703,
2014-10-17, 00:22:04,VALID,916.788,VALID,0,VALID,76.8135,VALID,0,VALID,22.3347,VALID,65,VALID,0.724219,
2014-10-17, 00:23:04,VALID,916.779,VALID,0,VALID,76.6687,VALID,0.107441,VALID,22.3152,VALID,92,VALID,2.23008,
2014-10-17, 00:24:04,VALID,916.785,VALID,0,VALID,76.6306,VALID,0,VALID,22.3754,VALID,89,VALID,1.68945,
2014-10-17, 00:25:04,VALID,916.763,VALID,0,VALID,76.905,VALID,0.107441,VALID,22.3542,VALID,98,VALID,0.214844,
2014-10-17, 00:26:04,VALID,916.743,VALID,0,VALID,77.3014,VALID,0.107441,VALID,22.3169,VALID,84,VALID,0.0625,
2014-10-17, 00:27:04,VALID,916.74,VALID,0,VALID,77.7665,VALID,0.107441,VALID,22.2567,VALID,84,VALID,0.00585938,
2014-10-17, 00:28:04,VALID,916.713,VALID,0,VALID,78.018,VALID,0,VALID,22.1786,VALID,101,VALID,0.0710938,
2014-10-17, 00:29:04,VALID,916.721,VALID,0,VALID,77.7817,VALID,0,VALID,22.1396,VALID,96,VALID,0.715234,
2014-10-17, 00:30:04,VALID,916.737,VALID,0,VALID,78.4373,VALID,0,VALID,22.1396,VALID,97,VALID,0,
2014-10-17, 00:31:04,VALID,916.731,VALID,0,VALID,79.5122,VALID,0,VALID,22.081,VALID,97,VALID,0,
2014-10-17, 00:32:04,VALID,916.728,VALID,0,VALID,79.779,VALID,0.107441,VALID,21.9444,VALID,139,VALID,0,
2014-10-17, 00:33:04,VALID,916.733,VALID,0,VALID,80.2898,VALID,0,VALID,21.8274,VALID,136,VALID,0,
2014-10-17, 00:34:04,VALID,916.691,VALID,0,VALID,80.9454,VALID,0,VALID,21.7688,VALID,132,VALID,0,
2014-10-17, 00:35:04,VALID,916.686,VALID,0,VALID,81.2961,VALID,0,VALID,21.6713,VALID,132,VALID,0,
2014-10-17, 00:36:04,VALID,916.686,VALID,0,VALID,81.8145,VALID,0,VALID,21.6323,VALID,132,VALID,0,
2014-10-17, 00:37:04,VALID,916.638,VALID,0,VALID,81.906,VALID,0.107441,VALID,21.5737,VALID,132,VALID,0,
2014-10-17, 00:38:04,VALID,916.654,VALID,0,VALID,81.4105,VALID,0,VALID,21.5932,VALID,137,VALID,0,
2014-10-17, 00:39:04,VALID,916.624,VALID,0,VALID,81.9898,VALID,0,VALID,21.5932,VALID,137,VALID,0,
2014-10-17, 00:40:04,VALID,916.629,VALID,0,VALID,81.7764,VALID,0,VALID,21.5542,VALID,135,VALID,0,
2014-10-17, 00:41:04,VALID,916.631,VALID,0,VALID,82.0966,VALID,0,VALID,21.5542,VALID,142,VALID,0,
2014-10-17, 00:42:04,VALID,916.616,VALID,0,VALID,82.2567,VALID,0,VALID,21.4957,VALID,146,VALID,0,
2014-10-17, 00:43:04,VALID,916.632,VALID,0,VALID,83.1638,VALID,0,VALID,21.4567,VALID,146,VALID,0,
2014-10-17, 00:44:04,VALID,916.662,VALID,0,VALID,83.484,VALID,0.107441,VALID,21.4177,VALID,146,VALID,0,
2014-10-17, 00:45:04,VALID,916.68,VALID,0,VALID,82.8055,VALID,0,VALID,21.4177,VALID,146,VALID,0,
2014-10-17, 00:46:04,VALID,916.713,VALID,0,VALID,82.9809,VALID,0,VALID,21.3981,VALID,146,VALID,0,
2014-10-17, 00:47:04,VALID,916.698,VALID,0,VALID,82.7903,VALID,0.107441,VALID,21.3981,VALID,146,VALID,0,
2014-10-17, 00:48:04,VALID,916.731,VALID,0,VALID,82.9504,VALID,0.107441,VALID,21.3981,VALID,146,VALID,0,
2014-10-17, 00:49:04,VALID,916.782,VALID,0,VALID,83.3621,VALID,0,VALID,21.3786,VALID,146,VALID,0,
2014-10-17, 00:50:04,VALID,916.742,VALID,0,VALID,83.6365,VALID,0.107441,VALID,21.3396,VALID,146,VALID,0,
2014-10-17, 00:51:04,VALID,916.727,VALID,0,VALID,84.2464,VALID,0,VALID,21.3022,VALID,146,VALID,0,
2014-10-17, 00:52:04,VALID,916.757,VALID,0,VALID,84.8944,VALID,0,VALID,21.2242,VALID,146,VALID,0,
2014-10-17, 00:53:04,VALID,916.758,VALID,0,VALID,84.9858,VALID,0,VALID,21.1657,VALID,146,VALID,0,
2014-10-17, 00:54:04,VALID,916.781,VALID,0,VALID,85.5576,VALID,0,VALID,21.1266,VALID,146,VALID,0,
2014-10-17, 00:55:04,VALID,916.776,VALID,0,VALID,85.4356,VALID,0,VALID,21.0681,VALID,146,VALID,0,
2014-10-17, 00:56:04,VALID,916.759,VALID,0,VALID,85.5119,VALID,0,VALID,21.0681,VALID,146,VALID,0,
2014-10-17, 00:57:04,VALID,916.79,VALID,0,VALID,85.4814,VALID,0,VALID,21.0275,VALID,146,VALID,0,
2014-10-17, 00:58:04,VALID,916.751,VALID,0,VALID,85.7482,VALID,0,VALID,21.0681,VALID,146,VALID,0,
2014-10-17, 00:59:04,VALID,916.75,VALID,0,VALID,86.0379,VALID,0,VALID,21.0096,VALID,146,VALID,0,
2014-10-17, 01:00:04,VALID,916.752,VALID,0,VALID,86.3504,VALID,0,VALID,20.9511,VALID,146,VALID,0,
2014-10-17, 01:01:04,VALID,916.738,VALID,0,VALID,86.5944,VALID,0,VALID,20.8925,VALID,146,VALID,0,
2014-10-17, 01:02:04,VALID,916.731,VALID,0,VALID,86.4114,VALID,0,VALID,20.9136,VALID,146,VALID,0,
2014-10-17, 01:03:04,VALID,916.737,VALID,0,VALID,86.6172,VALID,0,VALID,20.9316,VALID,146,VALID,0,
2014-10-17, 01:04:04,VALID,916.713,VALID,0,VALID,86.5715,VALID,0,VALID,20.873,VALID,146,VALID,0,
2014-10-17, 01:05:04,VALID,916.72,VALID,0,VALID,86.8536,VALID,0,VALID,20.834,VALID,146,VALID,0,
2014-10-17, 01:06:04,VALID,916.658,VALID,0,VALID,86.9451,VALID,0,VALID,20.795,VALID,146,VALID,0,
2014-10-17, 01:07:04,VALID,916.66,VALID,0,VALID,87.0518,VALID,0,VALID,20.7755,VALID,146,VALID,0,
2014-10-17, 01:08:04,VALID,916.652,VALID,0,VALID,87.1356,VALID,0,VALID,20.7576,VALID,146,VALID,0,
2014-10-17, 01:09:04,VALID,916.627,VALID,0,VALID,86.6706,VALID,0,VALID,20.7755,VALID,146,VALID,0,
2014-10-17, 01:10:04,VALID,916.617,VALID,0,VALID,85.9616,VALID,0,VALID,20.8535,VALID,146,VALID,0,
2014-10-17, 01:11:04,VALID,916.598,VALID,0,VALID,85.3289,VALID,0,VALID,20.9901,VALID,146,VALID,0,
2014-10-17, 01:12:04,VALID,916.64,VALID,0,VALID,84.7724,VALID,0,VALID,21.0681,VALID,146,VALID,0,
2014-10-17, 01:13:04,VALID,916.61,VALID,0,VALID,84.658,VALID,0,VALID,21.1461,VALID,146,VALID,0,
2014-10-17, 01:14:04,VALID,916.609,VALID,0,VALID,84.5361,VALID,0,VALID,21.2063,VALID,146,VALID,0,
2014-10-17, 01:15:04,VALID,916.601,VALID,0,VALID,84.7648,VALID,0,VALID,21.1868,VALID,146,VALID,0,
2014-10-17, 01:16:04,VALID,916.565,VALID,0,VALID,84.719,VALID,0,VALID,21.1657,VALID,146,VALID,0,
2014-10-17, 01:17:04,VALID,916.562,VALID,0,VALID,84.7114,VALID,0,VALID,21.1657,VALID,146,VALID,0,
2014-10-17, 01:18:04,VALID,916.555,VALID,0,VALID,84.9325,VALID,0,VALID,21.1868,VALID,146,VALID,0,
2014-10-17, 01:19:04,VALID,916.533,VALID,0,VALID,84.8791,VALID,0,VALID,21.1461,VALID,146,VALID,0,
2014-10-17, 01:20:04,VALID,916.5,VALID,0,VALID,84.78,VALID,0,VALID,21.1461,VALID,146,VALID,0,
2014-10-17, 01:21:04,VALID,916.477,VALID,0,VALID,84.7343,VALID,0,VALID,21.2063,VALID,146,VALID,0,
2014-10-17, 01:22:04,VALID,916.484,VALID,0,VALID,85.2222,VALID,0,VALID,21.1852,VALID,146,VALID,0,
2014-10-17, 01:23:04,VALID,916.438,VALID,0,VALID,85.0087,VALID,0,VALID,21.1657,VALID,146,VALID,0,
2014-10-17, 01:24:04,VALID,916.451,VALID,0,VALID,85.3365,VALID,0,VALID,21.1673,VALID,146,VALID,0,
2014-10-17, 01:25:04,VALID,916.428,VALID,0,VALID,85.4204,VALID,0,VALID,21.1071,VALID,146,VALID,0,
2014-10-17, 01:26:04,VALID,916.394,VALID,0,VALID,85.245,VALID,0,VALID,21.1071,VALID,146,VALID,0,
2014-10-17, 01:27:04,VALID,916.378,VALID,0,VALID,85.4737,VALID,0,VALID,21.1282,VALID,146,VALID,0,
2014-10-17, 01:28:04,VALID,916.383,VALID,0,VALID,85.7406,VALID,0,VALID,21.1266,VALID,146,VALID,0,
2014-10-17, 01:29:04,VALID,916.348,VALID,0,VALID,85.5728,VALID,0,VALID,21.1071,VALID,146,VALID,0,
2014-10-17, 01:30:04,VALID,916.359,VALID,0,VALID,84.7419,VALID,0,VALID,21.1071,VALID,146,VALID,0,
2014-10-17, 01:31:04,VALID,916.326,VALID,0,VALID,85.2908,VALID,0,VALID,21.1266,VALID,146,VALID,0,
2014-10-17, 01:32:04,VALID,916.319,VALID,0,VALID,84.2159,VALID,0,VALID,21.1266,VALID,146,VALID,0,
2014-10-17, 01:33:04,VALID,916.315,VALID,0,VALID,84.4522,VALID,0,VALID,21.2242,VALID,146,VALID,0,
2014-10-17, 01:34:04,VALID,916.284,VALID,0,VALID,83.2553,VALID,0,VALID,21.3217,VALID,146,VALID,0,
2014-10-17, 01:35:04,VALID,916.252,VALID,0,VALID,82.8894,VALID,0,VALID,21.3803,VALID,146,VALID,0,
2014-10-17, 01:36:04,VALID,916.247,VALID,0,VALID,83.1257,VALID,0,VALID,21.4193,VALID,146,VALID,0,
2014-10-17, 01:37:04,VALID,916.235,VALID,0,VALID,82.7674,VALID,0,VALID,21.4388,VALID,146,VALID,0,
2014-10-17, 01:38:04,VALID,916.213,VALID,0,VALID,82.5616,VALID,0,VALID,21.4583,VALID,146,VALID,0,
2014-10-17, 01:39:04,VALID,916.2,VALID,0,VALID,82.5921,VALID,0,VALID,21.4778,VALID,146,VALID,0,
2014-10-17, 01:40:04,VALID,916.167,VALID,0,VALID,82.5997,VALID,0,VALID,21.5185,VALID,146,VALID,0,
2014-10-17, 01:41:04,VALID,916.209,VALID,0,VALID,82.5692,VALID,0,VALID,21.4973,VALID,146,VALID,0,
2014-10-17, 01:42:04,VALID,916.172,VALID,0,VALID,82.6683,VALID,0,VALID,21.4973,VALID,146,VALID,0,
2014-10-17, 01:43:04,VALID,916.154,VALID,0,VALID,83.0342,VALID,0,VALID,21.4973,VALID,146,VALID,0,
2014-10-17, 01:44:04,VALID,916.155,VALID,0,VALID,83.4993,VALID,0,VALID,21.4778,VALID,146,VALID,0,
2014-10-17, 01:45:04,VALID,916.153,VALID,0,VALID,83.85,VALID,0,VALID,21.4193,VALID,146,VALID,0,
2014-10-17, 01:46:04,VALID,916.163,VALID,0,VALID,83.5069,VALID,0,VALID,21.3624,VALID,146,VALID,0,
2014-10-17, 01:47:04,VALID,916.12,VALID,0,VALID,82.8208,VALID,0,VALID,21.3998,VALID,146,VALID,0,
2014-10-17, 01:48:04,VALID,916.103,VALID,0,VALID,83.0571,VALID,0,VALID,21.4388,VALID,146,VALID,0,
2014-10-17, 01:49:04,VALID,916.098,VALID,0,VALID,82.1499,VALID,0,VALID,21.4778,VALID,128,VALID,0,
2014-10-17, 01:50:04,VALID,916.094,VALID,0,VALID,81.2275,VALID,0,VALID,21.5949,VALID,115,VALID,0,
2014-10-17, 01:51:04,VALID,916.078,VALID,0,VALID,79.8019,VALID,0,VALID,21.7526,VALID,109,VALID,0,
2014-10-17, 01:52:04,VALID,916.071,VALID,0,VALID,79.9086,VALID,0,VALID,21.8485,VALID,127,VALID,0,
2014-10-17, 01:53:04,VALID,916.03,VALID,0,VALID,80.3965,VALID,0,VALID,21.8681,VALID,127,VALID,0,
2014-10-17, 01:54:04,VALID,916.03,VALID,0,VALID,80.854,VALID,0,VALID,21.8095,VALID,123,VALID,0,
2014-10-17, 01:55:04,VALID,916.006,VALID,0,VALID,81.7993,VALID,0,VALID,21.7526,VALID,123,VALID,0,
2014-10-17, 01:56:04,VALID,915.968,VALID,0,VALID,82.0432,VALID,0,VALID,21.6339,VALID,123,VALID,0,
2014-10-17, 01:57:04,VALID,915.991,VALID,0,VALID,82.3786,VALID,0,VALID,21.5965,VALID,128,VALID,0,
2014-10-17, 01:58:04,VALID,915.967,VALID,0,VALID,82.5463,VALID,0,VALID,21.5363,VALID,124,VALID,0,
2014-10-17, 01:59:04,VALID,915.953,VALID,0,VALID,82.4854,VALID,0,VALID,21.4973,VALID,124,VALID,0,
2014-10-17, 02:00:04,VALID,915.973,VALID,0,VALID,82.8284,VALID,0,VALID,21.4973,VALID,124,VALID,0,
2014-10-17, 02:01:04,VALID,915.99,VALID,0,VALID,82.6836,VALID,0,VALID,21.4973,VALID,124,VALID,0.009375,
2014-10-17, 02:02:04,VALID,915.975,VALID,0,VALID,82.9199,VALID,0,VALID,21.4973,VALID,120,VALID,0,
2014-10-17, 02:03:04,VALID,916.004,VALID,0,VALID,83.5298,VALID,0,VALID,21.499,VALID,113,VALID,0,
2014-10-17, 02:04:04,VALID,915.965,VALID,0,VALID,82.8589,VALID,0,VALID,21.4599,VALID,114,VALID,0,
2014-10-17, 02:05:04,VALID,915.988,VALID,0,VALID,83.0114,VALID,0,VALID,21.4583,VALID,114,VALID,0,
2014-10-17, 02:06:04,VALID,916,VALID,0,VALID,82.9199,VALID,0,VALID,21.4583,VALID,128,VALID,0,
2014-10-17, 02:07:04,VALID,915.988,VALID,0,VALID,83.1029,VALID,0,VALID,21.4193,VALID,116,VALID,0,
2014-10-17, 02:08:04,VALID,915.983,VALID,0,VALID,83.4688,VALID,0,VALID,21.3998,VALID,114,VALID,0,
2014-10-17, 02:09:04,VALID,915.992,VALID,0,VALID,83.4535,VALID,0,VALID,21.3998,VALID,115,VALID,0,
2014-10-17, 02:10:04,VALID,916.011,VALID,0,VALID,83.6975,VALID,0,VALID,21.3608,VALID,115,VALID,0,
2014-10-17, 02:11:04,VALID,915.996,VALID,0,VALID,83.7737,VALID,0,VALID,21.3412,VALID,119,VALID,0,
2014-10-17, 02:12:04,VALID,916.018,VALID,0,VALID,83.9414,VALID,0,VALID,21.3217,VALID,122,VALID,0,
2014-10-17, 02:13:04,VALID,916.031,VALID,0,VALID,84.3226,VALID,0,VALID,21.3217,VALID,112,VALID,0,
2014-10-17, 02:14:04,VALID,916.01,VALID,0,VALID,84.5437,VALID,0,VALID,21.2827,VALID,112,VALID,0,
2014-10-17, 02:15:04,VALID,916.032,VALID,0,VALID,84.1701,VALID,0,VALID,21.3038,VALID,92,VALID,0,
2014-10-17, 02:16:04,VALID,916.003,VALID,0,VALID,83.2325,VALID,0,VALID,21.3412,VALID,80,VALID,0.0570313,
2014-10-17, 02:17:04,VALID,916.018,VALID,0,VALID,83.3011,VALID,0,VALID,21.3998,VALID,73,VALID,0,
2014-10-17, 02:18:04,VALID,916.032,VALID,0,VALID,82.8818,VALID,0,VALID,21.3998,VALID,83,VALID,0,
2014-10-17, 02:19:04,VALID,915.948,VALID,0,VALID,81.662,VALID,0,VALID,21.4778,VALID,77,VALID,1.72461,
2014-10-17, 02:20:04,VALID,915.978,VALID,0,VALID,82.0127,VALID,0,VALID,21.616,VALID,56,VALID,1.47578,
2014-10-17, 02:21:04,VALID,915.959,VALID,0,VALID,82.5692,VALID,0.107441,VALID,21.5737,VALID,67,VALID,0.136719,
2014-10-17, 02:22:04,VALID,915.938,VALID,0,VALID,82.8589,VALID,0.107441,VALID,21.5152,VALID,78,VALID,0,
2014-10-17, 02:23:04,VALID,915.889,VALID,0,VALID,83.0876,VALID,0,VALID,21.4567,VALID,65,VALID,0.0371094,
2014-10-17, 02:24:04,VALID,915.886,VALID,0,VALID,83.1943,VALID,0.107441,VALID,21.4372,VALID,90,VALID,0.282813,
2014-10-17, 02:25:04,VALID,915.818,VALID,0,VALID,83.2325,VALID,0.107441,VALID,21.4177,VALID,81,VALID,0.0328125,
2014-10-17, 02:26:04,VALID,915.83,VALID,0,VALID,83.3011,VALID,0.107441,VALID,21.3981,VALID,89,VALID,0,
2014-10-17, 02:27:04,VALID,915.801,VALID,0,VALID,83.3239,VALID,0,VALID,21.3591,VALID,81,VALID,0.00429688,
2014-10-17, 02:28:04,VALID,915.784,VALID,0,VALID,83.3468,VALID,0.107441,VALID,21.3591,VALID,93,VALID,0.0101562,
2014-10-17, 02:29:04,VALID,915.76,VALID,0,VALID,83.3925,VALID,0.107441,VALID,21.3786,VALID,76,VALID,0.142578,
2014-10-17, 02:30:04,VALID,915.77,VALID,0,VALID,82.775,VALID,0.107441,VALID,21.3786,VALID,81,VALID,0.942187,
2014-10-17, 02:31:04,VALID,915.706,VALID,0,VALID,82.554,VALID,0.107441,VALID,21.4177,VALID,97,VALID,0.345703,
2014-10-17, 02:32:04,VALID,915.722,VALID,0,VALID,82.4854,VALID,0.107441,VALID,21.4762,VALID,102,VALID,0,
2014-10-17, 02:33:04,VALID,915.748,VALID,0,VALID,82.554,VALID,0.107441,VALID,21.4567,VALID,88,VALID,0.655078,
2014-10-17, 02:34:04,VALID,915.747,VALID,0,VALID,82.836,VALID,0.107441,VALID,21.4372,VALID,92,VALID,0,
2014-10-17, 02:35:04,VALID,915.744,VALID,0,VALID,83.08,VALID,0.107441,VALID,21.3981,VALID,98,VALID,0,
2014-10-17, 02:36:04,VALID,915.739,VALID,0,VALID,82.5311,VALID,0.107441,VALID,21.3981,VALID,97,VALID,2.32891,
2014-10-17, 02:37:04,VALID,915.744,VALID,0,VALID,82.1042,VALID,0.107441,VALID,21.4762,VALID,96,VALID,0.744531,
2014-10-17, 02:38:04,VALID,915.766,VALID,0,VALID,81.9746,VALID,0,VALID,21.5152,VALID,88,VALID,0.561328,
2014-10-17, 02:39:04,VALID,915.761,VALID,0,VALID,81.9975,VALID,0.107441,VALID,21.5526,VALID,104,VALID,0.0832031,
2014-10-17, 02:40:04,VALID,915.729,VALID,0,VALID,82.1118,VALID,0,VALID,21.5542,VALID,73,VALID,0,
2014-10-17, 02:41:04,VALID,915.774,VALID,0,VALID,81.9288,VALID,0.107441,VALID,21.5347,VALID,87,VALID,0.129297,
2014-10-17, 02:42:04,VALID,915.749,VALID,0,VALID,82.028,VALID,0.107441,VALID,21.5737,VALID,105,VALID,0.125781,
2014-10-17, 02:43:04,VALID,915.76,VALID,0,VALID,82.0432,VALID,0,VALID,21.5542,VALID,100,VALID,0,
2014-10-17, 02:44:04,VALID,915.759,VALID,0,VALID,82.0889,VALID,0.107441,VALID,21.5542,VALID,104,VALID,0.0957031,
2014-10-17, 02:45:04,VALID,915.777,VALID,0,VALID,81.8984,VALID,0.107441,VALID,21.5737,VALID,102,VALID,0.101563,
2014-10-17, 02:46:04,VALID,915.772,VALID,0,VALID,81.6087,VALID,0,VALID,21.5737,VALID,121,VALID,1.77852,
2014-10-17, 02:47:04,VALID,915.725,VALID,0,VALID,81.2732,VALID,0,VALID,21.6713,VALID,113,VALID,1.48086,
2014-10-17, 02:48:04,VALID,915.73,VALID,0,VALID,81.2504,VALID,0.107441,VALID,21.6713,VALID,80,VALID,0.174219,
2014-10-17, 02:49:04,VALID,915.752,VALID,0,VALID,81.5705,VALID,0.107441,VALID,21.6713,VALID,92,VALID,0.0210938,
2014-10-17, 02:50:04,VALID,915.734,VALID,0,VALID,81.075,VALID,0.107441,VALID,21.6908,VALID,120,VALID,2.71836,
2014-10-17, 02:51:04,VALID,915.745,VALID,0,VALID,81.197,VALID,0.107441,VALID,21.7103,VALID,82,VALID,0.430469,
2014-10-17, 02:52:04,VALID,915.758,VALID,0,VALID,81.4638,VALID,0.107441,VALID,21.6908,VALID,96,VALID,0.437109,
2014-10-17, 02:53:04,VALID,915.762,VALID,0,VALID,81.7306,VALID,0.107441,VALID,21.6518,VALID,98,VALID,0,
2014-10-17, 02:54:04,VALID,915.759,VALID,0,VALID,81.8374,VALID,0,VALID,21.5916,VALID,98,VALID,0,
2014-10-17, 02:55:04,VALID,915.744,VALID,0,VALID,82.1347,VALID,0.107441,VALID,21.6144,VALID,82,VALID,0,
2014-10-17, 02:56:04,VALID,915.74,VALID,0,VALID,82.3253,VALID,0.107441,VALID,21.5737,VALID,66,VALID,0,
2014-10-17, 02:57:04,VALID,915.755,VALID,0,VALID,82.3786,VALID,0.107441,VALID,21.5542,VALID,67,VALID,0,
2014-10-17, 02:58:04,VALID,915.762,VALID,0,VALID,82.4777,VALID,0.107441,VALID,21.5136,VALID,77,VALID,0,
2014-10-17, 02:59:04,VALID,915.781,VALID,0,VALID,82.6378,VALID,0.107441,VALID,21.5152,VALID,77,VALID,0,
2014-10-17, 03:00:04,VALID,915.795,VALID,0,VALID,82.5235,VALID,0,VALID,21.5152,VALID,77,VALID,0,
2014-10-17, 03:01:04,VALID,915.801,VALID,0,VALID,82.7979,VALID,0.107441,VALID,21.5152,VALID,77,VALID,0,
2014-10-17, 03:02:04,VALID,915.801,VALID,0,VALID,82.8208,VALID,0.107441,VALID,21.5152,VALID,77,VALID,0,
2014-10-17, 03:03:04,VALID,915.798,VALID,0,VALID,82.5082,VALID,0.107441,VALID,21.5152,VALID,154,VALID,0,
2014-10-17, 03:04:04,VALID,915.802,VALID,0,VALID,82.958,VALID,0,VALID,21.5347,VALID,164,VALID,0,
2014-10-17, 03:05:04,VALID,915.809,VALID,0,VALID,82.9123,VALID,0.107441,VALID,21.5347,VALID,165,VALID,0,
2014-10-17, 03:06:04,VALID,915.833,VALID,0,VALID,83.2248,VALID,0,VALID,21.4778,VALID,159,VALID,0,
2014-10-17, 03:07:04,VALID,915.814,VALID,0,VALID,83.2934,VALID,0,VALID,21.4583,VALID,155,VALID,0,
2014-10-17, 03:08:04,VALID,915.821,VALID,0,VALID,83.6746,VALID,0,VALID,21.4388,VALID,155,VALID,0,
2014-10-17, 03:09:04,VALID,915.854,VALID,0,VALID,83.8423,VALID,0,VALID,21.4193,VALID,155,VALID,0,
2014-10-17, 03:10:04,VALID,915.793,VALID,0,VALID,83.4459,VALID,0,VALID,21.3803,VALID,161,VALID,0,
2014-10-17, 03:11:04,VALID,915.848,VALID,0,VALID,83.0647,VALID,0,VALID,21.4193,VALID,165,VALID,0,
2014-10-17, 03:12:04,VALID,915.851,VALID,0,VALID,83.5679,VALID,0,VALID,21.4388,VALID,166,VALID,0,
2014-10-17, 03:13:04,VALID,915.848,VALID,0,VALID,83.4154,VALID,0,VALID,21.4193,VALID,166,VALID,0,
2014-10-17, 03:14:04,VALID,915.859,VALID,0,VALID,83.5831,VALID,0,VALID,21.4193,VALID,166,VALID,0,
2014-10-17, 03:15:04,VALID,915.852,VALID,0,VALID,83.8576,VALID,0,VALID,21.3998,VALID,167,VALID,0,
2014-10-17, 03:16:04,VALID,915.839,VALID,0,VALID,84.2159,VALID,0,VALID,21.3608,VALID,167,VALID,0,
2014-10-17, 03:17:04,VALID,915.874,VALID,0,VALID,84.8334,VALID,0,VALID,21.3217,VALID,167,VALID,0,
2014-10-17, 03:18:04,VALID,915.838,VALID,0,VALID,85.4128,VALID,0,VALID,21.2827,VALID,169,VALID,0,
2014-10-17, 03:19:04,VALID,915.815,VALID,0,VALID,85.9693,VALID,0,VALID,21.1852,VALID,169,VALID,0,
2014-10-17, 03:20:04,VALID,915.8,VALID,0,VALID,86.2894,VALID,0,VALID,21.0681,VALID,221,VALID,0.0289063,
2014-10-17, 03:21:04,VALID,915.772,VALID,0,VALID,86.6249,VALID,0,VALID,20.9511,VALID,225,VALID,0,
2014-10-17, 03:22:04,VALID,915.773,VALID,0,VALID,86.6477,VALID,0,VALID,20.912,VALID,244,VALID,0,
2014-10-17, 03:23:04,VALID,915.754,VALID,0,VALID,86.5944,VALID,0,VALID,20.912,VALID,242,VALID,0,
2014-10-17, 03:24:04,VALID,915.789,VALID,0,VALID,86.5639,VALID,0,VALID,20.912,VALID,237,VALID,0,
2014-10-17, 03:25:04,VALID,915.743,VALID,0,VALID,86.5105,VALID,0,VALID,20.8925,VALID,237,VALID,0,
2014-10-17, 03:26:04,VALID,915.728,VALID,0,VALID,86.6935,VALID,0,VALID,20.8941,VALID,237,VALID,0,
2014-10-17, 03:27:04,VALID,915.717,VALID,0,VALID,86.9146,VALID,0,VALID,20.8941,VALID,237,VALID,0,
2014-10-17, 03:28:04,VALID,915.691,VALID,0,VALID,86.8078,VALID,0,VALID,20.8746,VALID,237,VALID,0,
2014-10-17, 03:29:04,VALID,915.697,VALID,0,VALID,87.2881,VALID,0,VALID,20.8535,VALID,237,VALID,0,
2014-10-17, 03:30:04,VALID,915.687,VALID,0,VALID,87.433,VALID,0,VALID,20.756,VALID,237,VALID,0,
2014-10-17, 03:31:04,VALID,915.684,VALID,0,VALID,87.5092,VALID,0,VALID,20.699,VALID,234,VALID,0.727734,
2014-10-17, 03:32:04,VALID,915.687,VALID,0,VALID,87.3872,VALID,0,VALID,20.717,VALID,26,VALID,0,
2014-10-17, 03:33:04,VALID,915.657,VALID,0,VALID,87.3339,VALID,0,VALID,20.678,VALID,15,VALID,0,
2014-10-17, 03:34:04,VALID,915.624,VALID,0,VALID,87.5626,VALID,0,VALID,20.699,INVALID,360,VALID,0,
2014-10-17, 03:35:04,VALID,915.633,VALID,0,VALID,87.6922,VALID,0,VALID,20.6585,VALID,31,VALID,0,
2014-10-17, 03:36:04,VALID,915.653,VALID,0,VALID,87.6083,VALID,0,VALID,20.5984,VALID,178,VALID,0,
2014-10-17, 03:37:04,VALID,915.642,VALID,0,VALID,86.4953,VALID,0.107441,VALID,20.717,VALID,197,VALID,0,
2014-10-17, 03:38:04,VALID,915.635,VALID,0,VALID,86.4038,VALID,0,VALID,20.8145,VALID,184,VALID,0,
2014-10-17, 03:39:04,VALID,915.675,VALID,0,VALID,86.137,VALID,0.107441,VALID,20.8324,VALID,205,VALID,0,
2014-10-17, 03:40:04,VALID,915.722,VALID,0,VALID,85.9388,VALID,0,VALID,20.8519,VALID,205,VALID,0,
2014-10-17, 03:41:04,VALID,915.718,VALID,0,VALID,85.6567,VALID,0,VALID,20.8925,VALID,205,VALID,0,
2014-10-17, 03:42:04,VALID,915.728,VALID,0,VALID,85.7787,VALID,0,VALID,20.8925,VALID,205,VALID,0,
2014-10-17, 03:43:04,VALID,915.752,VALID,0,VALID,85.7482,VALID,0,VALID,20.8519,VALID,205,VALID,0,
2014-10-17, 03:44:04,VALID,915.78,VALID,0,VALID,85.6948,VALID,0,VALID,20.873,VALID,205,VALID,0,
2014-10-17, 03:45:04,VALID,915.79,VALID,0,VALID,86.0303,VALID,0,VALID,20.873,VALID,205,VALID,0,
2014-10-17, 03:46:04,VALID,915.764,VALID,0,VALID,86.0836,VALID,0,VALID,20.834,VALID,205,VALID,0,
2014-10-17, 03:47:04,VALID,915.781,VALID,0,VALID,86.3352,VALID,0,VALID,20.7739,VALID,186,VALID,0,
2014-10-17, 03:48:04,VALID,915.784,VALID,0,VALID,86.4724,VALID,0,VALID,20.7154,VALID,181,VALID,0,
2014-10-17, 03:49:04,VALID,915.805,VALID,0,VALID,86.7316,VALID,0,VALID,20.7154,VALID,190,VALID,0,
2014-10-17, 03:50:04,VALID,915.795,VALID,0,VALID,86.9298,VALID,0,VALID,20.6975,VALID,193,VALID,0.535156,
2014-10-17, 03:51:04,VALID,915.823,VALID,0,VALID,87.067,VALID,0.107441,VALID,20.717,VALID,190,VALID,0.00585938,
2014-10-17, 03:52:04,VALID,915.808,VALID,0,VALID,87.1814,VALID,0,VALID,20.6975,VALID,183,VALID,0,
2014-10-17, 03:53:04,VALID,915.841,VALID,0,VALID,87.2271,VALID,0,VALID,20.6975,VALID,181,VALID,0.00078125,